This demonstration page uses our WeatherBlox Daily Observations layout. Learn more.

Left ArrowRight Arrow

Hourly Observations for January 10, 2015

Temp ( °F °C ) Dew Point ( °F °C ) Humidity (%) Winds ( mph kmh ) Pressure ( in mb ) Visibility ( mi km ) Precip ( " mm )
12:52 am 00:52 Clear 5 -15 0 -17.8 79 79 SSE 3 6 30.47 1032 10 16 0.00 0.00
1:52 am 01:52 Clear 3 -16.1 -2 -18.9 79 79 SSE 8 13 30.45 1031 10 16 0.00 0.00
2:52 am 02:52 Clear 3 -16.1 -2 -18.9 79 79 SSE 10 17 30.43 1031 10 16 0.00 0.00
3:52 am 03:52 Clear 4 -15.6 -2 -18.9 76 76 SSE 10 17 30.39 1029 10 16 0.00 0.00
4:52 am 04:52 Clear 5 -15 -1 -18.3 76 76 SE 12 19 30.35 1028 10 16 0.00 0.00
5:52 am 05:52 Partly Cloudy 6 -14.4 0 -17.8 76 76 SSE 12 19 30.31 1026 10 16 0.00 0.00
6:52 am 06:52 Mostly Clear 7 -13.9 0 -17.8 73 73 SSE 12 19 30.28 1025 10 16 0.00 0.00
7:52 am 07:52 Partly Cloudy 9 -12.8 1 -17.2 70 70 SSE 14 22 30.25 1025 10 16 0.00 0.00
8:52 am 08:52 Mostly Cloudy 12 -11.1 3 -16.1 67 67 SSE 14 22 30.24 1024 10 16 0.00 0.00
9:52 am 09:52 Cloudy 21 -6.1 7 -13.9 54 54 S 16 26 30.21 1023 10 16 0.00 0.00
10:52 am 10:52 Mostly Cloudy 25 -3.9 11 -11.7 55 55 S 18 30 30.17 1022 10 16 0.00 0.00
11:52 am 11:52 Mostly Cloudy 31 -0.6 13 -10.6 47 47 SSW 23 37 30.14 1021 10 16 0.00 0.00
12:52 pm 12:52 Mostly Cloudy 33 0.6 15 -9.4 47 47 SSW 18 30 30.09 1019 10 16 0.00 0.00
1:52 pm 13:52 Mostly Cloudy 36 2.2 17 -8.3 46 46 SSW 15 24 30.08 1019 10 16 0.00 0.00
2:52 pm 14:52 Mostly Cloudy 37 2.8 18 -7.8 46 46 SSE 5 7 30.09 1019 10 16 0.00 0.00
3:52 pm 15:52 Mostly Cloudy 38 3.3 19 -7.2 46 46 SW 14 22 30.09 1019 10 16 0.00 0.00
4:52 pm 16:52 Mostly Cloudy 37 2.8 20 -6.7 50 50 S 7 11 30.11 1020 10 16 0.00 0.00
5:52 pm 17:52 Mostly Cloudy 31 -0.6 20 -6.7 64 64 SSE 8 13 30.13 1020 10 16 0.00 0.00
6:52 pm 18:52 Mostly Cloudy 33 0.6 19 -7.2 56 56 S 12 19 30.15 1021 10 16 0.00 0.00
7:52 pm 19:52 Mostly Cloudy 30 -1.1 18 -7.8 61 61 S 6 9 30.16 1021 10 16 0.00 0.00
8:52 pm 20:52 Mostly Cloudy 28 -2.2 17 -8.3 63 63 S 5 7 30.17 1022 10 16 0.00 0.00
9:52 pm 21:52 Mostly Cloudy 26 -3.3 16 -8.9 66 66 SSW 5 7 30.16 1022 10 16 0.00 0.00
10:52 pm 22:52 Mostly Cloudy 26 -3.3 15 -9.4 63 63 SSW 3 6 30.17 1022 10 16 0.00 0.00
11:52 pm 23:52 Mostly Cloudy 21 -6.1 17 -8.3 85 85 N 9 15 30.17 1022 10 16 0.00 0.00

Powered by AerisWeather